Weather History for Bangor, ME

Change the Weather History Date:

Wednesday, November 21, 2012

  Actual Average Record
Temperature  
Mean Temperature 35 °F 35 °F  
Max Temperature 45 °F 43 °F 65 °F (1991)
Min Temperature 24 °F 27 °F 11 °F (1939)
Degree Days  
Heating Degree Days 30 30  
Month to date heating degree days 607 554  
Since 1 July heating degree days 1290 1380  
Cooling Degree Days 0 0  
Month to date cooling degree days 0 0  
Year to date cooling degree days 395 318  
Moisture  
Dew Point 29 °F    
Average Humidity 85    
Maximum Humidity 100    
Minimum Humidity 70    
Precipitation  
Precipitation 0.00 in 0.14 in 2.14 in (1961)
Month to date precipitation 1.13 2.92  
Year to date precipitation 38.71 37.17  
Snow  
Snow 0.00 in 0.10 in 5.20 in (1961)
Month to date snowfall 4.0 0.8  
Since 1 July snowfall 4.0 0.9  
Since 1 September snowfall 4.0 0.9  
Snow Depth 0.00 in    
Sea Level Pressure  
Sea Level Pressure 30.28 in    
Wind  
Wind Speed 3 mph (North)    
Max Wind Speed 9 mph    
Max Gust Speed 26 mph    
Visibility 4 miles    
Events Fog    
T = Trace of Precipitation, MM = Missing Value Source: NWS Daily Summary

Daily Weather History Graph

Daily Weather History Graph

Search for Another Location

Airport:

Trip Planner

Search our weather history database for the weather conditions in past years. The results will help you decide how hot, cold, wet, or windy it might be!

Date:

Astronomy

Nov. 21, 2012 Rise Set
Actual Time 6:40 AM EST 4:01 PM EST
Civil Twilight 6:08 AM EST 4:33 PM EST
Nautical Twilight 5:32 AM EST 5:09 PM EST
Astronomical Twilight 4:57 AM EST 5:44 PM EST
Moon 12:30 PM EST (11/21) No Moon Set
Length of Visible Light 10h 24m
Length of Day
9h 20m
First Quarter, 61% of the Moon is Illuminated
Nov 21
First Quarter
Nov 28
Full
Dec 6
Last Quarter
Dec 13
New
Dec 20
First Quarter

Hourly Weather History & Observations

Time (EST) Temp. Windchill Dew Point Humidity Pressure Visibility Wind Dir Wind Speed Gust Speed Precip Events Conditions
12:53 AM 27.0 °F 21.6 °F 23.0 °F 85% 30.22 in 10.0 mi North 4.6 mph - N/A   Scattered Clouds
1:53 AM 27.0 °F 23.0 °F 23.0 °F 85% 30.23 in 10.0 mi NNW 3.5 mph - N/A   Scattered Clouds
2:53 AM 26.1 °F 21.9 °F 23.0 °F 88% 30.24 in 10.0 mi North 3.5 mph - N/A   Scattered Clouds
3:53 AM 27.0 °F 23.0 °F 24.1 °F 89% 30.25 in 10.0 mi North 3.5 mph - N/A   Scattered Clouds
4:53 AM 28.0 °F 24.2 °F 25.0 °F 88% 30.25 in 10.0 mi North 3.5 mph - N/A   Scattered Clouds
5:28 AM 28.4 °F 21.2 °F 26.6 °F 93% 30.26 in 10.0 mi North 6.9 mph - N/A   Scattered Clouds
5:53 AM 28.9 °F 22.8 °F 28.0 °F 96% 30.28 in 3.0 mi North 5.8 mph - N/A   Overcast
6:15 AM 30.2 °F 23.4 °F 28.4 °F 93% 30.27 in 1.0 mi North 6.9 mph - N/A   Overcast
6:25 AM 30.2 °F 24.3 °F 30.2 °F 100% 30.28 in 0.5 mi NNE 5.8 mph - N/A Fog Light Freezing Fog
6:53 AM 30.9 °F 22.8 °F 30.0 °F 96% 30.30 in 0.8 mi North 9.2 mph - N/A   Mist
7:53 AM 32.0 °F 27.5 °F 32.0 °F 100% 30.30 in 0.5 mi North 4.6 mph - N/A Fog Fog
8:53 AM 33.1 °F 28.7 °F 33.1 °F 100% 30.32 in 0.5 mi NNE 4.6 mph - N/A Fog Fog
9:53 AM 35.1 °F 31.0 °F 35.1 °F 100% 30.32 in 1.0 mi North 4.6 mph - N/A   Overcast
10:31 AM 35.6 °F 31.7 °F 35.6 °F 100% 30.30 in 2.0 mi NE 4.6 mph - N/A   Overcast
10:53 AM 35.6 °F 32.8 °F 35.6 °F 100% 30.29 in 3.0 mi NE 3.5 mph - N/A   Overcast
11:25 AM 37.4 °F 34.9 °F 35.6 °F 93% 30.28 in 9.0 mi NE 3.5 mph - N/A   Mostly Cloudy
11:53 AM 39.9 °F - 35.1 °F 83% 30.28 in 10.0 mi Calm Calm - N/A   Scattered Clouds
12:53 PM 43.0 °F - 36.0 °F 76% 30.27 in 10.0 mi Calm Calm - N/A   Scattered Clouds
1:53 PM 44.1 °F - 35.1 °F 71% 30.27 in 10.0 mi Calm Calm - N/A   Mostly Cloudy
2:53 PM 44.1 °F 42.5 °F 35.1 °F 71% 30.27 in 10.0 mi WNW 3.5 mph - N/A   Scattered Clouds
3:53 PM 37.0 °F - 33.1 °F 86% 30.28 in 10.0 mi Calm Calm - N/A   Scattered Clouds
4:53 PM 34.0 °F - 30.9 °F 89% 30.28 in 10.0 mi Calm Calm - N/A   Partly Cloudy
5:53 PM 30.0 °F - 28.0 °F 92% 30.29 in 10.0 mi Calm Calm - N/A   Clear
6:53 PM 30.9 °F - 30.9 °F 100% 30.30 in 10.0 mi Calm Calm - N/A   Clear
7:53 PM 27.0 °F - 26.1 °F 96% 30.30 in 8.0 mi Calm Calm - N/A   Clear
8:17 PM 28.4 °F - 28.4 °F 100% 30.28 in 0.8 mi Calm Calm - N/A   Mist
8:31 PM 28.4 °F - 28.4 °F 100% 30.28 in 2.0 mi Calm Calm - N/A   Partly Cloudy
8:38 PM 26.6 °F 22.6 °F 26.6 °F 100% 30.28 in 2.0 mi SSE 3.5 mph - N/A   Partly Cloudy
8:51 PM 28.4 °F - 28.4 °F 100% 30.27 in 2.5 mi Calm Calm - N/A   Clear
8:53 PM 28.9 °F - 28.0 °F 96% 30.29 in 2.5 mi Calm Calm - N/A   Scattered Clouds
9:02 PM 28.4 °F - 28.4 °F 100% 30.27 in 1.0 mi Calm Calm - N/A   Scattered Clouds
9:14 PM 26.6 °F - 26.6 °F 100% 30.27 in 0.5 mi Calm Calm - N/A Fog Light Freezing Fog
9:23 PM 26.6 °F - 24.8 °F 93% 30.27 in 0.2 mi Calm Calm - N/A Fog Light Freezing Fog
9:50 PM 26.6 °F - 24.8 °F 93% 30.27 in 0.5 mi Calm Calm - N/A Fog Light Freezing Fog
9:53 PM 26.1 °F - 25.0 °F 96% 30.28 in 0.5 mi Calm Calm - N/A Fog Light Freezing Fog
10:27 PM 24.8 °F - 24.8 °F 100% 30.26 in 0.2 mi Calm Calm - N/A Fog Light Freezing Fog
10:53 PM 25.0 °F - 25.0 °F 100% 30.28 in 0.5 mi Calm Calm - N/A Fog Light Freezing Fog
11:01 PM 24.8 °F - 24.8 °F 100% 30.27 in 0.5 mi Calm Calm - N/A Fog Light Freezing Fog
11:12 PM 26.6 °F - 24.8 °F 93% 30.27 in 0.5 mi Calm Calm - N/A Fog Light Freezing Fog
11:27 PM 24.8 °F - 24.8 °F 100% 30.27 in 0.2 mi Calm Calm - N/A Fog Light Freezing Fog
11:53 PM 25.0 °F - 25.0 °F 100% 30.28 in 0.2 mi Calm Calm - N/A Fog Light Freezing Fog